[[{"header":{"parameterUnit":"m.s-1","parameterCategory":1,"la1":30.2991,"la2":30.254,"lo1":-89.0895,"lo2":-89.0444,"dy":0.0017,"dx":0.0017,"nx":28,"ny":28,"refTime":"2023-08-10T21:00:00:Z","depth":0,"parameterNumber":2,"parameterNumberName":"U-component_of_WINDS"},"data":[0,0,0,0,0,0,0,0,0,0,0,0,0,0,0,0,0,0,0,0,0,0,0,0,0,0,0,0,0,0,0,0,0,0,0,0,0,0,0,0,0,0,0,0,0,0,0,0,0,0,0,0,0,0,0,0,0,0,3.4511,3.4512,0,3.4544,3.4544,3.4544,3.4511,3.451,3.4508,3.4507,3.4545,3.4547,3.4549,0,0,0,0,0,0,0,0,0,0,0,0,0,3.4426,3.4427,3.4511,3.4512,3.4512,3.4543,3.4544,3.4544,3.4511,3.4509,3.4508,3.4506,3.4544,3.4547,3.4549,0,0,0,0,0,0,0,0,0,0,0,0,0,3.4461,3.4428,3.4511,3.4499,3.4498,3.4543,3.4544,3.4544,3.4511,3.4509,3.4507,3.4506,3.4543,3.4546,3.455,3.461,0,0,3.456,3.4561,0,0,0,0,0,0,0,0,3.4459,3.4464,3.45,3.45,3.4499,3.4521,3.4528,3.4567,3.4512,3.4507,3.4507,3.4505,3.4539,3.4542,3.4553,3.4611,3.4613,3.456,3.4562,3.4564,3.4565,0,0,0,0,0,0,0,3.4457,3.4463,3.4524,3.4501,3.45,3.4494,3.4497,3.4535,3.4534,3.4507,3.4505,3.4509,3.4538,3.455,3.4554,3.4614,3.456,3.4563,3.4565,3.4566,3.4724,3.4726,0,0,0,0,0,0,3.4455,3.4461,3.4523,3.4525,3.4474,3.4497,3.45,3.4516,3.4533,3.4533,3.451,3.4507,3.4545,3.455,3.4555,3.4626,3.4564,3.4567,3.4569,3.4722,3.4724,3.4727,0,0,0,0,0,0,3.4453,3.4461,3.4522,3.4492,3.45,3.45,3.4519,3.4518,3.4529,3.4535,3.4535,3.4522,3.4544,3.455,3.4596,3.4627,3.4568,3.4571,3.4719,3.4723,3.4726,3.4769,0,0,0,0,0,0,3.4451,3.446,3.4482,3.4493,3.4501,3.4561,3.4521,3.452,3.4535,3.4531,3.4546,3.4547,3.4543,3.4591,3.4599,3.463,3.4574,3.4716,3.4721,3.4725,3.4765,3.4774,3.4781,0,0,0,0,0,3.4448,3.4494,3.4483,3.4491,3.4528,3.4563,3.4568,3.456,3.4537,3.456,3.4564,3.4547,3.4622,3.4596,3.4605,3.4638,3.4714,3.472,3.4724,3.4761,3.4772,3.4781,0,0,0,0,0,0,3.4487,3.4495,3.4483,3.4533,3.4548,3.4557,3.4585,3.4571,3.4593,3.4589,3.458,3.4584,3.4633,3.464,3.4611,3.4697,3.4665,3.4672,3.469,3.47,3.4708,3.4705,3.4577,0,0,0,0,0,3.4502,3.4528,3.4534,3.4578,3.4585,3.4584,3.4599,3.4592,3.4607,3.4613,3.4621,3.4637,3.4665,3.4683,3.4709,3.4766,3.477,3.4793,3.4801,3.4808,3.4814,3.4845,3.4856,3.4743,3.4743,3.4743,0,0,3.4532,3.4539,3.4557,3.4586,3.4596,3.4625,3.4589,3.4621,3.4643,3.4619,3.4662,3.4668,3.4686,3.4738,3.4762,3.4746,3.4846,3.4814,3.4819,3.4821,3.4851,3.4862,3.4871,3.4746,3.4746,3.4745,0,0,3.4602,3.461,3.4647,3.4658,3.4673,3.4672,3.4682,3.4693,3.4696,3.4739,3.4722,3.4748,3.4796,3.4809,3.4822,3.4899,3.4884,3.4908,3.4949,3.498,3.4988,3.4996,3.5023,3.5033,3.4914,3.4914,3.4914,0,3.4637,3.4678,3.4669,3.4702,3.4716,3.4694,3.4732,3.4744,3.4768,3.4779,3.476,3.482,3.483,3.4885,3.4904,3.4915,3.4926,3.4905,3.4988,3.4995,3.5003,3.5028,3.5039,3.4916,3.4916,3.4916,3.4916,0,3.4722,3.4751,3.478,3.4802,3.4819,3.4855,3.4852,3.4872,3.4864,3.4865,3.491,3.4922,3.495,3.4963,3.4956,3.5017,3.5007,3.4989,3.4956,3.5016,3.504,3.505,3.492,3.4919,3.4919,3.4918,0,0,3.4816,3.4832,3.4843,3.4853,3.4869,3.4892,3.4928,3.4954,3.4971,3.4989,3.5019,3.506,3.5043,3.5058,3.5053,3.508,3.5139,3.5058,3.5058,3.5072,3.5208,3.5221,3.5233,3.513,3.5132,3.5134,3.5207,0,3.4886,3.4946,3.4939,3.4997,3.5024,3.5004,3.5036,3.505,3.5053,3.5078,3.5082,3.5111,3.5086,3.5095,3.5121,3.5126,3.5166,3.5121,3.5159,3.5161,3.5154,3.5245,3.5259,3.5328,3.5216,3.5218,3.5219,0,3.4975,3.4994,3.5055,3.5067,3.5078,3.5106,3.5129,3.5153,3.517,3.517,3.5187,3.5177,3.5215,3.5182,3.5234,3.5204,3.5219,3.5225,3.5227,3.523,3.5193,3.525,3.5349,3.5359,3.5234,3.5232,3.5231,0,3.5037,3.5079,3.512,3.5129,3.5145,3.5165,3.5173,3.5187,3.5203,3.5224,3.5235,3.5261,3.5276,3.5297,3.5295,3.5271,3.5348,3.5315,3.535,3.535,3.5366,3.5365,3.5469,3.5378,3.5378,3.5377,3.5377,0,3.5115,3.5153,3.5148,3.5173,3.5216,3.5208,3.5251,3.5256,3.5269,3.5297,3.5282,3.5309,3.5305,3.5332,3.5331,3.5374,3.5381,3.5383,3.5382,3.5384,3.5384,3.5393,3.5388,3.538,3.5379,3.5379,3.5378,0,3.5191,3.5189,3.5233,3.5244,3.5248,3.5278,3.5289,3.5314,3.5316,3.535,3.5358,3.5362,3.5393,3.5393,3.5429,3.5429,3.5482,3.5476,3.5476,3.5474,3.5509,3.5505,3.5621,3.5636,3.5537,3.5538,3.5538,0,3.524,3.5268,3.5282,3.5299,3.5307,3.5335,3.5351,3.5345,3.5363,3.5384,3.5407,3.5437,3.5459,3.551,3.5517,3.5545,3.5539,3.5578,3.5544,3.5544,3.5539,3.5537,3.554,3.5585,3.5586,3.5587,3.5588,0,3.5328,3.5326,3.5349,3.5372,3.5392,3.541,3.5427,3.5442,3.5439,3.546,3.5491,3.5509,3.5545,3.5575,3.5601,3.5611,3.5599,3.5599,3.5608,3.5609,3.5608,3.5609,3.5493,3.5596,3.5595,3.5594,3.5594,3.5594,3.5391,3.5416,3.5429,3.5456,3.5468,3.5485,3.5508,3.5513,3.5538,3.5566,3.5562,3.5597,3.5614,3.5648,3.566,3.5688,3.5675,3.5689,3.5692,3.5695,3.5699,3.5604,3.5693,3.5693,3.5693,3.5693,3.5693,0,3.5478,3.5486,3.551,3.5534,3.5556,3.5542,3.556,3.5579,3.5609,3.5625,3.5648,3.5684,3.5713,3.5722,3.5751,3.5771,3.5767,3.5779,3.5777,3.5779,3.5709,3.5698,3.5782,3.5782,3.5782,3.5782,3.5782,3.5782,3.5525,3.5566,3.5566,3.5612,3.5621,3.5653,3.5665,3.568,3.5693,3.5733,3.5757,3.5762,3.5776,3.5806,3.5832,3.5834,3.5845,3.5859,3.5859,3.5794,3.5784,3.5776,3.5765,3.5862,3.5862,3.5927,3.5928,3.5928]},{"header":{"parameterUnit":"m.s-1","parameterCategory":1,"la1":30.2991,"la2":30.254,"lo1":-89.0895,"lo2":-89.0444,"dy":0.0017,"dx":0.0017,"nx":28,"ny":28,"refTime":"2023-08-10T21:00:00:Z","depth":0,"parameterNumber":3,"parameterNumberName":"V-component_of_WINDS"},"data":[0,0,0,0,0,0,0,0,0,0,0,0,0,0,0,0,0,0,0,0,0,0,0,0,0,0,0,0,0,0,0,0,0,0,0,0,0,0,0,0,0,0,0,0,0,0,0,0,0,0,0,0,0,0,0,0,0,0,2.0956,2.0958,0,2.1069,2.1071,2.1072,2.1112,2.1112,2.1111,2.1111,2.1226,2.123,2.1233,0,0,0,0,0,0,0,0,0,0,0,0,0,2.0773,2.0776,2.0956,2.0958,2.0959,2.1069,2.1071,2.1072,2.1112,2.1112,2.1111,2.1111,2.1225,2.1229,2.1233,0,0,0,0,0,0,0,0,0,0,0,0,0,2.0866,2.0777,2.0956,2.0992,2.0997,2.1069,2.1071,2.1073,2.1112,2.1112,2.1111,2.111,2.1224,2.1229,2.1234,2.1278,0,0,2.125,2.1252,0,0,0,0,0,0,0,0,2.0861,2.0873,2.0986,2.099,2.0995,2.1076,2.1049,2.1142,2.1112,2.1068,2.1111,2.111,2.1177,2.1186,2.1208,2.1284,2.1289,2.125,2.1253,2.1256,2.1257,0,0,0,0,0,0,0,2.0854,2.0868,2.1001,2.0987,2.0993,2.1002,2.1015,2.1066,2.1125,2.1072,2.1075,2.1088,2.1179,2.1203,2.1211,2.129,2.125,2.1255,2.1258,2.126,2.1406,2.1406,0,0,0,0,0,0,2.0842,2.0862,2.0997,2.1004,2.0925,2.1006,2.102,2.1051,2.1124,2.1135,2.1089,2.109,2.1195,2.1205,2.1215,2.1271,2.1256,2.126,2.1263,2.1405,2.1406,2.1407,0,0,0,0,0,0,2.0838,2.0854,2.0993,2.0934,2.0953,2.101,2.1044,2.1053,2.1077,2.1137,2.1147,2.1103,2.1195,2.1208,2.1262,2.1276,2.1263,2.1267,2.1404,2.1405,2.1406,2.1383,0,0,0,0,0,0,2.0832,2.0852,2.087,2.0934,2.0956,2.1038,2.1045,2.1056,2.1086,2.1089,2.1152,2.1162,2.1195,2.1254,2.1267,2.1283,2.1271,2.1403,2.1405,2.1406,2.1383,2.1383,2.1384,0,0,0,0,0,2.0826,2.0859,2.0871,2.0887,2.0979,2.1039,2.1051,2.1088,2.1087,2.1105,2.1143,2.116,2.1272,2.1259,2.1274,2.1292,2.1402,2.1404,2.1406,2.1383,2.1383,2.1384,0,0,0,0,0,0,2.0795,2.0868,2.0882,2.0937,2.0981,2.1045,2.1069,2.1088,2.1133,2.1133,2.1177,2.1191,2.1241,2.1272,2.1256,2.1337,2.1338,2.1343,2.1315,2.1316,2.1317,2.1308,2.1276,0,0,0,0,0,2.0795,2.0837,2.0899,2.0941,2.0963,2.1012,2.1039,2.1064,2.1111,2.113,2.1172,2.1217,2.1262,2.1291,2.1336,2.1387,2.1401,2.1407,2.1407,2.1407,2.1411,2.1439,2.1441,2.1412,2.1412,2.1412,0,0,2.0794,2.084,2.0864,2.0936,2.0973,2.1015,2.1028,2.1072,2.1103,2.1137,2.119,2.1222,2.1275,2.1327,2.1353,2.1355,2.1422,2.1409,2.1409,2.1413,2.1441,2.1443,2.1446,2.1414,2.1413,2.1413,0,0,2.0815,2.0854,2.0893,2.093,2.0986,2.1018,2.1027,2.1088,2.1111,2.1165,2.119,2.1228,2.1305,2.1341,2.137,2.1402,2.142,2.1416,2.1418,2.1444,2.1447,2.1449,2.1459,2.1463,2.1419,2.1419,2.1419,0,2.0808,2.0873,2.0911,2.0954,2.0985,2.1016,2.1056,2.1089,2.1157,2.1177,2.1178,2.1274,2.1313,2.1373,2.1381,2.1403,2.1414,2.1409,2.1443,2.1446,2.1449,2.1459,2.1463,2.1418,2.1418,2.1418,2.1418,0,2.086,2.0904,2.0929,2.0993,2.1027,2.1067,2.1111,2.1141,2.1162,2.1193,2.1247,2.1293,2.1348,2.1364,2.1385,2.1427,2.1426,2.1435,2.1436,2.145,2.146,2.1465,2.1417,2.1417,2.1417,2.1418,0,0,2.0866,2.0949,2.0958,2.0986,2.1049,2.1084,2.1126,2.1178,2.1202,2.1247,2.1282,2.1346,2.1354,2.1386,2.1411,2.1435,2.1456,2.1441,2.1442,2.1441,2.1503,2.1496,2.15,2.1468,2.1469,2.1469,2.1499,0,2.0894,2.097,2.1005,2.1065,2.1106,2.1136,2.1172,2.1214,2.1244,2.1283,2.1316,2.136,2.1368,2.1387,2.1412,2.1448,2.1469,2.1447,2.15,2.1502,2.1486,2.1506,2.1499,2.1524,2.1503,2.1504,2.1504,0,2.0938,2.0982,2.1046,2.1103,2.1121,2.1153,2.1203,2.124,2.1287,2.1308,2.1343,2.1367,2.1411,2.1409,2.147,2.1454,2.1477,2.1498,2.15,2.1506,2.1504,2.1512,2.1533,2.1537,2.1511,2.1511,2.151,0,2.0934,2.101,2.1057,2.1081,2.1149,2.117,2.1199,2.1246,2.1275,2.1319,2.1338,2.1386,2.1412,2.1449,2.1485,2.1481,2.1541,2.1543,2.1559,2.1558,2.157,2.1569,2.1595,2.1586,2.1586,2.1586,2.1586,0,2.0962,2.0999,2.1056,2.1085,2.1128,2.1168,2.1208,2.124,2.1281,2.1316,2.1345,2.1377,2.1424,2.1462,2.149,2.1535,2.1547,2.1564,2.1571,2.1561,2.1559,2.1577,2.1576,2.1587,2.1587,2.1587,2.1587,0,2.0965,2.1004,2.1058,2.1117,2.1133,2.1162,2.1212,2.1241,2.1272,2.1316,2.1329,2.1378,2.1424,2.1464,2.1524,2.1544,2.1589,2.1598,2.1573,2.1577,2.159,2.1588,2.1629,2.1636,2.1622,2.1622,2.1622,0,2.0979,2.1009,2.1071,2.1096,2.1125,2.1166,2.1195,2.1235,2.1264,2.132,2.1342,2.139,2.143,2.1502,2.1543,2.1589,2.1599,2.161,2.1606,2.1595,2.1598,2.1596,2.1598,2.161,2.161,2.161,2.161,0,2.1001,2.1019,2.106,2.1108,2.1142,2.1182,2.1222,2.1241,2.1288,2.1319,2.1367,2.1398,2.1459,2.1506,2.1557,2.1586,2.1605,2.161,2.1616,2.1607,2.159,2.1598,2.1573,2.1609,2.1609,2.1609,2.1609,2.1609,2.101,2.1037,2.1084,2.1129,2.1163,2.12,2.123,2.1264,2.1305,2.1358,2.1378,2.1426,2.1472,2.1541,2.1571,2.1608,2.1611,2.162,2.1622,2.1624,2.1622,2.1584,2.1618,2.1618,2.1618,2.1618,2.1618,0,2.1032,2.1064,2.1105,2.116,2.1195,2.121,2.1255,2.1283,2.1324,2.1365,2.1404,2.1457,2.1503,2.1546,2.1594,2.1615,2.1625,2.1626,2.1625,2.1631,2.1617,2.1606,2.1617,2.1617,2.1617,2.1617,2.1617,2.1617,2.1048,2.1094,2.1117,2.118,2.1212,2.1259,2.1283,2.1317,2.1349,2.1408,2.1445,2.1473,2.1515,2.1566,2.1607,2.1619,2.1635,2.1633,2.1647,2.1633,2.1632,2.1632,2.1622,2.1637,2.1637,2.1659,2.1659,2.1659]}]]